Location: Asheville, NC
(35.6000°N, 82.5500°W)
Time: 00:29:33
(UTC-04:00)

Vanguard 1 - Pass Details

Date: 15 March 2018
Orbit: 650 x 3833 km, 34.3° (Epoch: 24 June)

Event Time Altitude Azimuth Distance (km) Brightness Sun altitude
Rises 18:16:17 0° 281° (W) 6,834 15.6 15.6°
Reaches altitude 10° 18:25:25 10° 256° (WSW) 4,931 17.1 13.7°
Maximum altitude 18:29:36 12° 238° (WSW) 4,298 15.0 12.9°
Drops below altitude 10° 18:33:10 10° 218° (SW) 4,038 14.1 12.2°
Sets 18:38:41 0° 189° (S) 4,343 13.6 11.1°
